| time (UTC) | temp F | wind direction | speed MPH | gust MPH | rain 1hr in | rain 24hr in | rain mn in | humidity % | barometer mb |
| 20260506165019 | 73 | 0.0 | 0.0 | 0.00 | 0.00 | 0.00 | 14 | 999.5 | |
| 20260506163948 | 74 | 0.0 | 0.0 | 0.00 | 0.00 | 0.00 | 14 | 999.6 | |
| 20260506162838 | 75 | 0.0 | 0.0 | 0.00 | 0.00 | 0.00 | 14 | 1000.1 | |
| 20260506161828 | 75 | 0.0 | 0.0 | 0.00 | 0.00 | 0.00 | 14 | 1000.1 | |
| 20260506160838 | 76 | 0.0 | 0.0 | 0.00 | 0.00 | 0.00 | 14 | 1000.1 | |
| 20260506155928 | 76 | 0.0 | 0.0 | 0.00 | 0.00 | 0.00 | 14 | 1000.8 | |
| 20260506154858 | 76 | 0.0 | 0.0 | 0.00 | 0.00 | 0.00 | 14 | 1000.8 | |
| 20260506153848 | 76 | 0.0 | 0.0 | 0.00 | 0.00 | 0.00 | 14 | 1000.8 | |
| 20260506152858 | 76 | 0.0 | 0.0 | 0.00 | 0.00 | 0.00 | 14 | 1001.1 | |
| 20260506151848 | 76 | 0.0 | 0.0 | 0.00 | 0.00 | 0.00 | 14 | 1001.2 | |
| 20260506150817 | 76 | 0.0 | 0.0 | 0.00 | 0.00 | 0.00 | 14 | 1001.2 | |
| 20260506145948 | 77 | 0.0 | 0.0 | 0.00 | 0.00 | 0.00 | 14 | 1001.3 | |
| 20260506144917 | 77 | 0.0 | 0.0 | 0.00 | 0.00 | 0.00 | 14 | 1001.4 | |
| 20260506143827 | 75 | 0.0 | 0.0 | 0.00 | 0.00 | 0.00 | 14 | 1001.3 | |
| 20260506142756 | 75 | 0.0 | 0.0 | 0.00 | 0.00 | 0.00 | 14 | 1001.5 | |
| 20260506141806 | 75 | 0.0 | 0.0 | 0.00 | 0.00 | 0.00 | 14 | 1001.5 | |
| 20260506140736 | 75 | 0.0 | 0.0 | 0.00 | 0.00 | 0.00 | 14 | 1001.5 | |
| 20260506135826 | 76 | 0.0 | 0.0 | 0.00 | 0.00 | 0.00 | 14 | 1001.8 | |
| 20260506134856 | 75 | 0.0 | 0.0 | 0.00 | 0.00 | 0.00 | 14 | 1001.8 | |
| 20260506133746 | 75 | 0.0 | 0.0 | 0.00 | 0.00 | 0.00 | 14 | 1001.8 | |
| 20260506132736 | 75 | 0.0 | 0.0 | 0.00 | 0.00 | 0.00 | 14 | 1002.1 | |
| 20260506131846 | 75 | 0.0 | 0.0 | 0.00 | 0.00 | 0.00 | 14 | 1002.2 | |
| 20260506130736 | 75 | 0.0 | 0.0 | 0.00 | 0.00 | 0.00 | 14 | 1002.2 | |
| 20260506125806 | 76 | 0.0 | 0.0 | 0.00 | 0.00 | 0.00 | 14 | 1002.3 | |
| 20260506124816 | 77 | 0.0 | 0.0 | 0.00 | 0.00 | 0.00 | 14 | 1002.4 | |
| 20260506123746 | 78 | 0.0 | 0.0 | 0.00 | 0.00 | 0.00 | 14 | 1002.4 | |
| 20260506122756 | 79 | 0.0 | 0.0 | 0.00 | 0.00 | 0.00 | 14 | 1002.8 | |
| 20260506121726 | 78 | 0.0 | 0.0 | 0.00 | 0.00 | 0.00 | 14 | 1002.8 | |
| 20260506120736 | 78 | 0.0 | 0.0 | 0.00 | 0.00 | 0.00 | 14 | 1002.8 | |
| 20260506115706 | 79 | 0.0 | 0.0 | 0.00 | 0.00 | 0.00 | 14 | 1003.0 | |
| 20260506114656 | 78 | 0.0 | 0.0 | 0.00 | 0.00 | 0.00 | 14 | 1002.9 | |
| 20260506113726 | 79 | 0.0 | 0.0 | 0.00 | 0.00 | 0.00 | 14 | 1003.0 | |
| 20260506112716 | 78 | 0.0 | 0.0 | 0.00 | 0.00 | 0.00 | 14 | 1003.4 | |
| 20260506111726 | 78 | 0.0 | 0.0 | 0.00 | 0.00 | 0.00 | 14 | 1003.4 | |
| 20260506110616 | 78 | 0.0 | 0.0 | 0.00 | 0.00 | 0.00 | 14 | 1003.4 | |
| 20260506104656 | 75 | 0.0 | 0.0 | 0.00 | 0.00 | 0.00 | 14 | 1003.6 | |
| 20260506103726 | 74 | 0.0 | 0.0 | 0.00 | 0.00 | 0.00 | 14 | 1003.5 | |
| 20260506102636 | 75 | 0.0 | 0.0 | 0.00 | 0.00 | 0.00 | 14 | 1003.5 | |
| 20260506101605 | 76 | 0.0 | 0.0 | 0.00 | 0.00 | 0.00 | 14 | 1003.5 | |
| 20260506100435 | 76 | 0.0 | 0.0 | 0.00 | 0.00 | 0.00 | 14 | 1003.9 | |
| 20260506095625 | 75 | 0.0 | 0.0 | 0.00 | 0.00 | 0.00 | 14 | 1003.9 | |
| 20260506094415 | 74 | 0.0 | 0.0 | 0.00 | 0.00 | 0.00 | 14 | 1003.9 | |
| 20260506093445 | 73 | 0.0 | 0.0 | 0.00 | 0.00 | 0.00 | 14 | 1003.8 | |
| 20260506092234 | 73 | 0.0 | 0.0 | 0.00 | 0.00 | 0.00 | 14 | 1003.8 | |
| 20260506091304 | 72 | 0.0 | 0.0 | 0.00 | 0.00 | 0.00 | 14 | 1003.8 | |
| 20260506090134 | 71 | 0.0 | 0.0 | 0.00 | 0.00 | 0.00 | 14 | 1003.9 | |
| 20260506085224 | 70 | 0.0 | 0.0 | 0.00 | 0.00 | 0.00 | 14 | 1003.9 | |
| 20260506084053 | 69 | 0.0 | 0.0 | 0.00 | 0.00 | 0.00 | 14 | 1003.9 | |
| 20260506083043 | 67 | 0.0 | 0.0 | 0.00 | 0.00 | 0.00 | 14 | 1003.8 | |
| 20260506081953 | 67 | 0.0 | 0.0 | 0.00 | 0.00 | 0.00 | 14 | 1003.8 | |
| 20260506080843 | 67 | 0.0 | 0.0 | 0.00 | 0.00 | 0.00 | 14 | 1003.9 | |
| 20260506072700 | 64 | 0.0 | 0.0 | 0.00 | 0.00 | 0.00 | 25 | 1003.8 | |
| 20260506071631 | 63 | 0.0 | 0.0 | 0.00 | 0.00 | 0.00 | 26 | 1003.7 | |
| 20260506070539 | 62 | 0.0 | 0.0 | 0.00 | 0.00 | 0.00 | 26 | 1003.5 | |
| 20260506062355 | 59 | 0.0 | 0.0 | 0.00 | 0.00 | 0.00 | 32 | 1003.8 | |
| 20260506061403 | 58 | 0.0 | 0.0 | 0.00 | 0.00 | 0.00 | 31 | 1003.7 | |
| 20260506060313 | 58 | 0.0 | 0.0 | 0.00 | 0.00 | 0.00 | 31 | 1003.4 | |
| 20260506050736 | 55 | 0.0 | 0.0 | 0.00 | 0.00 | 0.00 | 27 | 1003.1 | |
| 20260506044654 | 54 | 0.0 | 0.0 | 0.00 | 0.00 | 0.00 | 14 | 1003.1 | |
| 20260506043722 | 54 | 0.0 | 0.0 | 0.00 | 0.00 | 0.00 | 14 | 1003.1 | |
| 20260506042530 | 54 | 0.0 | 0.0 | 0.00 | 0.00 | 0.00 | 14 | 1002.8 | |
| 20260506041419 | 54 | 0.0 | 0.0 | 0.00 | 0.00 | 0.00 | 14 | 1002.8 | |
| 20260506040407 | 54 | 0.0 | 0.0 | 0.00 | 0.00 | 0.00 | 14 | 1002.8 | |
| 20260506035355 | 54 | 0.0 | 0.0 | 0.00 | 0.00 | 0.00 | 14 | 1002.8 | |
| 20260506034244 | 55 | 0.0 | 0.0 | 0.00 | 0.00 | 0.00 | 14 | 1002.8 | |
| 20260506033152 | 55 | 0.0 | 0.0 | 0.00 | 0.00 | 0.00 | 14 | 1002.5 | |
| 20260506032040 | 55 | 0.0 | 0.0 | 0.00 | 0.00 | 0.00 | 14 | 1002.5 | |
| 20260506031009 | 56 | 0.0 | 0.0 | 0.00 | 0.00 | 0.00 | 14 | 1002.6 | |
| 20260506025937 | 56 | 0.0 | 0.0 | 0.00 | 0.00 | 0.00 | 14 | 1002.8 | |
| 20260506024805 | 56 | 0.0 | 0.0 | 0.00 | 0.00 | 0.00 | 14 | 1002.8 | |
| 20260506023733 | 56 | 0.0 | 0.0 | 0.00 | 0.00 | 0.00 | 14 | 1002.8 | |
| 20260506022621 | 57 | 0.0 | 0.0 | 0.00 | 0.00 | 0.00 | 14 | 1002.8 | |
| 20260506021650 | 57 | 0.0 | 0.0 | 0.00 | 0.00 | 0.00 | 14 | 1002.8 | |
| 20260506020518 | 57 | 0.0 | 0.0 | 0.00 | 0.00 | 0.00 | 14 | 1002.1 | |
| 20260506015446 | 57 | 0.0 | 0.0 | 0.00 | 0.00 | 0.00 | 14 | 1002.1 | |
| 20260506014435 | 58 | 0.0 | 0.0 | 0.00 | 0.00 | 0.00 | 14 | 1002.1 | |
| 20260506013223 | 58 | 0.0 | 0.0 | 0.00 | 0.00 | 0.00 | 14 | 1002.1 | |
| 20260506012332 | 58 | 0.0 | 0.0 | 0.00 | 0.00 | 0.00 | 14 | 1002.1 | |
| 20260506011400 | 58 | 0.0 | 0.0 | 0.00 | 0.00 | 0.00 | 14 | 1002.1 | |
| 20260506010328 | 59 | 0.0 | 0.0 | 0.00 | 0.00 | 0.00 | 14 | 1001.9 | |
| 20260506005236 | 59 | 0.0 | 0.0 | 0.00 | 0.00 | 0.00 | 14 | 1001.9 | |
| 20260506004125 | 59 | 0.0 | 0.0 | 0.00 | 0.00 | 0.00 | 14 | 1001.9 | |
| 20260506003113 | 59 | 0.0 | 0.0 | 0.00 | 0.00 | 0.00 | 14 | 1002.0 | |
| 20260506002040 | 59 | 0.0 | 0.0 | 0.00 | 0.00 | 0.00 | 14 | 1001.9 | |
| 20260506000947 | 59 | 0.0 | 0.0 | 0.00 | 0.00 | 0.00 | 14 | 1001.9 | |
| 20260505235956 | 60 | 0.0 | 0.0 | 0.00 | 0.00 | 0.00 | 14 | 1001.6 | |
| 20260505234923 | 60 | 0.0 | 0.0 | 0.00 | 0.00 | 0.00 | 14 | 1001.6 | |
| 20260505234010 | 60 | 0.0 | 0.0 | 0.00 | 0.00 | 0.00 | 14 | 1001.6 | |
| 20260505232956 | 60 | 0.0 | 0.0 | 0.00 | 0.00 | 0.00 | 14 | 1001.6 | |
| 20260505232002 | 60 | 0.0 | 0.0 | 0.00 | 0.00 | 0.00 | 14 | 1001.4 | |
| 20260505231048 | 60 | 0.0 | 0.0 | 0.00 | 0.00 | 0.00 | 14 | 1001.4 | |
| 20260505230016 | 60 | 0.0 | 0.0 | 0.00 | 0.00 | 0.00 | 14 | 1001.3 | |
| 20260505224941 | 60 | 0.0 | 0.0 | 0.00 | 0.00 | 0.00 | 14 | 1001.3 | |
| 20260505223847 | 61 | 0.0 | 0.0 | 0.00 | 0.00 | 0.00 | 14 | 1001.3 | |
| 20260505222952 | 61 | 0.0 | 0.0 | 0.00 | 0.00 | 0.00 | 14 | 1001.2 | |
| 20260505221817 | 61 | 0.0 | 0.0 | 0.00 | 0.00 | 0.00 | 14 | 1001.1 | |
| 20260505220903 | 61 | 0.0 | 0.0 | 0.00 | 0.00 | 0.00 | 14 | 1001.1 | |
| 20260505214813 | 61 | 0.0 | 0.0 | 0.00 | 0.00 | 0.00 | 14 | 1001.2 | |
| 20260505213718 | 61 | 0.0 | 0.0 | 0.00 | 0.00 | 0.00 | 14 | 1001.2 | |
| 20260505212824 | 61 | 0.0 | 0.0 | 0.00 | 0.00 | 0.00 | 14 | 1001.4 | |
| 20260505211749 | 61 | 0.0 | 0.0 | 0.00 | 0.00 | 0.00 | 14 | 1001.2 | |
| 20260505210632 | 62 | 0.0 | 0.0 | 0.00 | 0.00 | 0.00 | 14 | 1001.3 | |
| 20260505205616 | 62 | 0.0 | 0.0 | 0.00 | 0.00 | 0.00 | 14 | 1001.2 | |
| 20260505204701 | 62 | 0.0 | 0.0 | 0.00 | 0.00 | 0.00 | 14 | 1001.0 | |
| 20260505203644 | 63 | 0.0 | 0.0 | 0.00 | 0.00 | 0.00 | 14 | 1001.1 | |
| 20260505202648 | 63 | 0.0 | 0.0 | 0.00 | 0.00 | 0.00 | 14 | 1001.1 | |
| 20260505200658 | 64 | 0.0 | 0.0 | 0.00 | 0.00 | 0.00 | 14 | 1001.0 | |
| 20260505195641 | 64 | 0.0 | 0.0 | 0.00 | 0.00 | 0.00 | 14 | 1000.9 | |
| 20260505194625 | 64 | 0.0 | 0.0 | 0.00 | 0.00 | 0.00 | 14 | 1000.9 | |
| 20260505193710 | 65 | 0.0 | 0.0 | 0.00 | 0.00 | 0.00 | 14 | 1000.9 | |
| 20260505192653 | 65 | 0.0 | 0.0 | 0.00 | 0.00 | 0.00 | 14 | 1001.0 | |
| 20260505191657 | 66 | 0.0 | 0.0 | 0.00 | 0.00 | 0.00 | 14 | 1001.1 | |
| 20260505190620 | 66 | 0.0 | 0.0 | 0.00 | 0.00 | 0.00 | 14 | 1001.1 | |
| 20260505185825 | 66 | 0.0 | 0.0 | 0.00 | 0.00 | 0.00 | 14 | 1000.9 | |
| 20260505184647 | 67 | 0.0 | 0.0 | 0.00 | 0.00 | 0.00 | 14 | 1000.8 | |
| 20260505183711 | 68 | 0.0 | 0.0 | 0.00 | 0.00 | 0.00 | 14 | 1000.9 | |
| 20260505182714 | 68 | 0.0 | 0.0 | 0.00 | 0.00 | 0.00 | 14 | 1001.0 | |
| 20260505181650 | 69 | 0.0 | 0.0 | 0.00 | 0.00 | 0.00 | 14 | 1000.9 | |
| 20260505180649 | 69 | 0.0 | 0.0 | 0.00 | 0.00 | 0.00 | 14 | 1000.9 | |
| 20260505175810 | 70 | 0.0 | 0.0 | 0.00 | 0.00 | 0.00 | 14 | 1000.7 | |
| 20260505173644 | 72 | 0.0 | 0.0 | 0.00 | 0.00 | 0.00 | 14 | 1000.7 | |
| 20260505172821 | 73 | 0.0 | 0.0 | 0.00 | 0.00 | 0.00 | 14 | 1000.4 | |
| 20260505171656 | 74 | 0.0 | 0.0 | 0.00 | 0.00 | 0.00 | 14 | 1000.4 | |
| 20260505170734 | 76 | 0.0 | 0.0 | 0.00 | 0.00 | 0.00 | 14 | 1000.5 | |
| 20260505165826 | 77 | 0.0 | 0.0 | 0.00 | 0.00 | 0.00 | 14 | 1000.4 |